Wind_Speed
20 18 18 21 22 23 23 24 24 24 23 22 21 20 21 21 20 19 18 17 16 16 17 17 17 17 16 16 16 16 15 13 12 11 10 9 9 9 10 11 11 12 13 14 15 16 18 20 22 23 23 23 21 18 16 14 13 13 12 12 12 11 12
25 22 19 20 21 22 22 23 25 26 25 24 22 21 21 21 21 20 19 18 17 17 18 18 18 18 17 18 18 18 17 16 15 15 13 12 12 12 13 13 14 14 15 16 16 17 18 19 21 23 23 23 22 19 17 15 14 14 13 13 13 13 13
25 24 22 22 22 21 21 22 24 25 26 26 24 22 20 19 18 18 18 17 17 18 19 19 19 19 19 20 20 20 20 19 19 18 17 16 15 15 16 16 17 17 17 18 18 19 19 20 21 22 23 24 23 20 17 16 15 14 14 13 13 13 13
25 25 23 22 22 21 20 21 21 22 23 24 23 22 20 19 17 16 16 15 16 17 18 18 19 20 20 21 22 23 22 22 22 21 20 20 19 18 18 19 19 19 19 19 19 19 20 20 21 22 23 23 23 21 18 16 15 14 14 13 13 13 14
25 25 24 24 25 23 22 22 22 22 21 21 21 21 19 19 19 18 17 16 16 15 16 18 19 21 21 23 24 24 24 24 24 24 23 23 22 21 21 21 22 21 20 19 19 20 20 20 20 22 23 23 23 21 18 16 14 14 14 13 13 13 14
25 26 26 28 27 24 23 23 23 23 20 19 19 18 16 17 18 18 17 17 17 17 18 19 20 20 22 24 25 26 26 27 27 27 27 27 26 24 23 24 24 22 20 20 20 20 20 20 21 22 23 23 22 20 17 15 14 14 13 13 13 13 13
25 26 27 29 28 24 22 22 22 22 20 18 18 18 18 17 16 16 16 17 18 19 21 21 21 21 22 25 27 28 28 29 30 30 30 30 29 27 26 26 25 23 21 21 21 21 21 21 21 22 23 22 21 19 17 15 14 14 13 13 13 13 14
20 24 27 28 27 24 21 21 21 21 19 19 19 20 20 19 17 17 17 18 18 20 21 22 23 23 24 26 27 28 29 31 32 33 33 32 31 29 28 27 26 24 22 22 22 22 21 20 20 22 23 21 20 19 17 15 15 15 14 14 14 15 16
17 22 26 25 24 23 20 20 20 19 19 19 20 20 20 21 20 20 19 18 19 21 21 22 23 26 27 28 28 29 30 33 35 35 35 35 33 31 31 29 26 25 24 23 22 21 21 20 21 23 21 20 19 18 16 16 16 16 15 15 16 16 16
17 21 24 22 23 22 21 21 21 20 21 20 20 21 21 23 23 22 21 21 22 22 21 22 24 27 29 30 30 31 32 35 37 38 39 39 36 34 34 31 27 25 25 24 22 21 20 19 19 20 18 18 18 17 16 16 15 16 16 16 16 16 17
17 22 23 22 22 21 20 21 21 22 22 21 21 21 22 23 23 22 23 22 22 22 22 23 26 28 30 32 33 34 35 37 39 42 42 41 38 35 33 31 28 27 27 25 23 21 19 17 17 18 18 18 18 17 16 16 15 15 16 16 16 16 17
18 22 23 22 20 18 17 19 20 21 22 21 20 20 20 21 22 22 22 22 22 22 23 25 26 27 29 33 35 36 38 39 42 46 43 40 39 35 30 29 28 28 28 26 23 21 19 18 18 19 19 18 18 17 16 15 14 15 16 16 16 15 15
21 24 24 23 20 17 16 18 19 20 20 19 19 18 18 18 19 20 20 21 21 23 24 25 26 26 27 31 33 37 41 44 47 49 46 44 44 37 29 29 29 29 30 27 24 24 21 19 20 22 20 19 18 16 15 14 14 15 16 16 16 15 15
25 26 25 23 20 18 18 19 19 20 19 17 16 15 15 15 16 17 18 20 21 23 24 24 24 24 25 26 30 36 44 47 47 48 49 49 46 36 30 30 33 32 32 29 28 27 25 22 25 25 19 18 17 14 14 14 14 15 16 16 16 15 16
24 27 26 24 21 18 18 20 20 19 17 15 13 12 12 13 14 15 16 19 21 23 23 23 23 23 23 24 27 34 40 41 43 47 49 49 47 39 33 33 35 35 34 33 31 29 27 27 27 22 16 16 15 13 14 15 14 16 17 17 18 18 18
22 26 27 24 19 16 18 21 20 18 15 12 10 9 10 12 14 15 17 19 20 21 22 22 22 22 23 25 27 31 34 35 41 46 47 47 47 41 34 34 36 38 38 36 35 33 29 26 21 16 14 14 13 12 13 14 15 17 19 20 21 21 22
21 26 28 24 17 14 18 22 22 18 14 10 8 9 10 12 15 17 18 20 20 20 21 22 23 23 25 28 29 31 32 32 38 45 47 47 45 39 32 32 36 39 40 39 37 34 27 19 14 14 15 13 11 12 13 14 16 19 21 22 24 25 26
25 28 27 21 15 15 19 22 23 20 15 12 10 11 12 14 17 19 20 21 21 23 24 25 26 26 28 30 31 31 32 31 36 45 47 43 40 36 29 31 36 39 40 40 36 29 21 15 13 13 13 12 11 12 13 15 18 20 23 24 25 28 29
28 28 23 17 15 16 18 20 21 20 17 15 14 15 16 19 21 23 23 25 25 27 29 29 29 29 30 32 32 31 31 31 37 46 44 36 34 32 26 30 36 38 39 38 32 25 18 14 13 12 11 11 12 13 15 17 19 22 24 26 28 31 32
29 24 19 16 17 17 17 19 21 20 18 17 17 18 20 21 24 24 24 26 26 28 30 30 31 31 32 33 33 31 31 31 37 44 39 30 29 28 24 29 35 38 41 36 26 20 17 14 12 12 11 12 13 16 17 19 21 23 25 28 31 33 34
27 22 19 18 19 18 19 21 21 20 19 19 19 20 22 23 24 23 23 24 23 24 25 25 26 28 29 31 32 30 30 31 36 39 33 26 26 26 26 30 34 35 36 29 19 17 17 14 12 11 11 12 15 18 19 20 22 25 27 30 32 33 35
23 20 18 19 20 21 22 23 22 21 20 20 21 23 24 24 23 22 23 23 22 21 21 22 23 24 26 28 29 29 29 31 34 34 28 24 26 26 25 26 25 23 24 21 18 17 16 13 12 11 11 14 17 19 20 21 24 27 29 31 33 35 37
20 19 20 23 24 24 24 23 22 21 21 23 24 25 24 22 21 21 21 20 20 19 20 23 24 25 26 27 27 28 28 29 30 29 25 23 24 20 17 17 17 18 19 19 18 16 13 12 13 14 15 17 19 21 22 23 25 28 30 33 35 37 36
22 23 24 26 26 24 23 22 21 22 23 24 23 21 20 18 18 19 18 19 19 19 20 23 25 27 27 27 27 27 25 25 27 24 20 20 19 15 16 19 20 19 19 18 16 15 14 15 16 18 19 20 21 24 26 26 27 30 32 35 38 37 35
27 27 28 27 25 23 21 21 21 22 23 22 20 17 17 17 17 18 19 20 21 21 22 23 25 26 26 26 27 26 22 22 23 18 14 16 17 18 20 21 21 20 19 18 17 17 17 19 20 20 20 22 24 28 30 29 30 32 34 36 38 38 36
28 27 27 25 22 20 19 19 20 21 21 19 18 17 18 18 18 20 22 22 23 24 25 26 26 25 25 26 27 25 20 18 16 12 15 17 18 20 22 22 22 20 20 21 21 21 21 21 21 20 21 23 27 30 31 31 31 33 35 37 37 37 36
24 25 24 23 21 20 18 17 17 18 18 17 18 18 19 20 21 23 24 24 25 26 27 27 26 25 26 27 26 21 17 14 13 16 19 20 20 22 23 22 20 20 21 22 22 22 21 20 20 21 23 25 28 30 32 32 32 33 36 37 35 34 34
25 26 25 24 24 23 20 17 16 17 17 16 17 19 21 23 25 26 27 26 27 28 29 28 25 25 26 26 22 17 13 15 19 20 22 25 26 25 24 22 19 19 20 21 21 19 19 20 22 24 25 27 29 31 31 32 33 34 36 35 33 33 34
26 26 24 23 22 20 19 17 16 16 16 16 18 21 24 26 27 28 28 28 29 30 29 27 25 24 25 24 19 15 17 21 22 22 24 27 28 27 25 22 20 20 20 19 18 18 19 22 24 25 26 27 29 31 32 33 34 35 36 35 34 34 34
24 22 19 17 16 15 15 15 14 15 16 19 22 25 27 28 28 29 29 30 30 30 28 26 23 22 23 22 17 18 22 23 23 24 26 29 29 26 23 21 20 19 18 18 18 18 19 22 24 25 27 28 30 32 33 33 34 35 35 34 34 33 32
22 20 18 16 15 14 15 15 17 19 22 23 25 27 28 29 29 29 29 30 30 28 26 24 20 20 21 20 18 20 22 22 22 25 28 29 28 24 22 20 19 17 16 17 17 17 18 21 24 25 27 28 30 31 32 32 33 34 34 33 32 31 31
23 22 19 16 14 13 15 18 21 24 26 27 29 29 29 29 28 28 29 29 29 26 24 21 18 18 19 19 18 21 22 22 23 26 28 28 25 23 22 21 19 17 16 17 17 17 20 22 24 25 26 27 28 30 31 31 32 32 31 30 30 30 30
19 18 17 16 19 22 24 25 25 27 29 30 30 29 28 27 27 27 27 27 26 24 22 19 15 15 16 17 20 21 20 21 24 27 28 27 25 23 22 21 19 17 16 17 18 19 21 22 23 23 24 26 27 28 29 31 31 30 29 29 29 29 29
25 26 27 27 29 31 31 29 28 29 31 30 29 28 27 26 26 26 26 26 25 23 21 17 13 13 14 17 20 20 19 22 26 27 28 28 25 21 20 19 18 17 17 17 19 20 21 20 21 22 23 25 26 28 29 30 30 29 28 28 28 28 28
33 36 35 32 29 29 29 29 29 29 29 29 28 28 27 27 27 26 25 24 23 21 19 15 13 14 16 18 21 21 21 26 28 29 29 26 21 18 16 15 16 17 18 18 19 18 18 19 19 21 23 25 26 27 28 28 27 27 27 28 28 28 28
25 27 28 27 27 27 28 28 27 27 27 27 27 28 28 27 26 24 23 22 21 19 18 15 15 16 17 18 20 23 26 29 29 28 26 21 18 16 15 15 16 17 18 18 18 18 18 18 19 21 23 24 26 26 27 27 27 27 28 28 28 28 27
25 27 27 27 28 28 28 27 27 27 28 28 29 29 28 26 23 20 19 19 19 18 17 15 15 17 18 19 21 25 28 28 26 25 23 21 21 18 16 15 17 18 18 18 18 18 18 19 19 20 22 24 26 27 27 28 28 28 28 28 28 27 26
29 30 29 28 27 28 28 28 29 30 31 31 31 29 26 23 19 17 18 18 17 16 14 13 15 18 20 20 23 26 27 26 25 26 27 25 21 18 16 17 19 20 20 20 19 19 19 19 19 20 22 24 26 28 28 29 29 28 28 27 26 26 25
Wind_Direction
256 245 235 234 232 228 227 228 230 234 237 238 239 237 237 237 236 234 233 233 233 232 233 232 232 232 232 231 229 230 231 234 236 240 246 257 272 284 291 298 305 313 319 324 328 333 340 347 351 353 351 349 348 345 343 339 333 328 325 324 322 319 316
252 246 234 228 229 227 227 229 232 234 237 240 242 242 241 241 242 240 238 237 237 238 239 239 236 237 238 236 236 238 239 240 243 247 251 256 265 274 281 288 295 302 307 311 317 323 330 337 342 346 347 345 344 342 341 336 332 329 327 325 321 318 315
245 243 235 226 224 224 224 228 232 235 237 239 242 244 245 246 248 247 242 241 241 243 244 244 243 243 242 241 242 244 244 245 248 251 254 257 263 270 275 281 288 292 296 301 308 314 322 327 333 338 340 340 339 339 337 334 331 328 325 321 317 314 311
239 238 235 229 223 222 223 225 229 233 237 239 242 245 247 249 249 245 241 239 240 245 249 251 251 249 248 248 249 249 250 251 252 253 255 258 260 264 269 275 281 285 288 294 301 308 315 320 325 330 334 336 335 334 334 333 329 325 321 318 316 313 309
234 235 231 226 220 218 220 220 222 226 232 236 240 244 246 247 247 243 240 239 239 242 247 250 252 252 252 252 252 253 254 254 253 253 255 257 258 261 265 271 276 279 284 290 297 304 310 314 317 323 329 331 330 329 330 329 325 321 319 318 317 313 308
224 227 223 219 215 214 216 217 220 223 226 230 234 239 241 242 244 243 242 242 242 243 243 245 246 248 250 251 252 253 253 253 253 253 254 255 257 258 261 267 271 275 280 287 294 300 304 308 310 317 324 326 326 324 323 324 321 319 318 319 319 318 314
224 221 217 216 213 212 214 218 223 226 226 226 228 231 234 238 241 241 242 242 242 245 246 246 246 247 248 249 250 251 252 254 254 253 253 254 256 257 259 264 269 272 277 283 290 295 298 302 306 314 321 320 319 317 316 319 319 316 317 320 323 324 323
235 222 215 214 212 213 217 219 224 227 227 226 227 229 231 234 235 236 238 238 240 244 246 248 250 251 251 250 251 252 253 254 253 252 252 251 253 256 258 262 266 268 273 279 284 288 291 296 302 312 317 314 311 312 312 316 317 315 317 321 324 326 325
235 219 212 213 213 214 217 218 222 228 230 229 228 229 230 232 235 237 238 239 241 242 244 250 254 253 253 253 252 252 253 253 252 251 251 252 253 255 257 259 261 265 270 274 276 279 284 290 299 309 313 309 307 308 311 315 316 315 316 319 322 324 322
229 213 206 207 209 212 214 215 219 224 226 225 225 226 228 231 234 236 238 239 241 244 246 250 253 255 256 255 253 253 253 252 250 248 249 251 252 254 258 258 257 261 265 266 268 272 279 287 299 310 309 305 305 306 309 312 312 312 314 317 321 321 319
221 209 204 202 204 210 213 214 214 215 216 217 220 224 226 229 232 235 240 242 243 246 249 250 254 257 259 259 256 254 253 252 251 249 248 248 250 256 260 254 252 257 258 259 261 266 273 280 294 308 306 299 301 304 305 308 310 312 314 317 318 317 315
218 211 205 200 201 209 216 217 213 210 211 213 216 219 221 224 229 232 236 240 242 246 248 250 254 258 261 262 259 257 256 253 250 246 243 242 246 253 254 246 246 252 253 254 256 259 265 271 281 295 298 295 296 300 303 305 309 311 311 311 310 309 310
218 214 206 200 200 208 215 215 211 208 209 210 210 213 216 221 226 229 232 237 241 246 248 251 256 260 264 266 266 264 257 247 243 244 246 246 247 253 256 243 238 245 250 249 250 253 256 265 279 287 289 290 291 295 299 301 306 310 311 311 306 302 304
217 215 207 201 201 208 212 212 210 206 205 204 204 209 217 222 226 229 231 235 240 246 250 255 260 263 266 269 272 270 260 251 250 254 257 256 253 258 265 248 234 239 245 245 246 250 253 266 283 285 280 280 283 287 293 298 308 315 316 317 312 307 308
218 215 207 203 205 208 210 210 206 200 197 199 203 213 223 227 232 236 238 241 245 251 256 259 262 263 266 269 270 268 265 266 269 264 261 260 256 259 267 257 241 238 240 242 245 247 255 271 281 278 268 268 274 281 291 298 310 315 314 315 316 315 316
217 216 210 207 207 209 210 208 201 194 194 199 208 224 233 238 245 249 251 251 253 257 259 260 262 262 264 265 265 266 268 274 277 269 263 262 258 257 264 262 249 240 237 239 243 247 258 271 272 263 260 264 272 283 293 301 308 311 313 314 313 312 313
217 217 212 207 204 207 210 207 201 198 204 213 225 240 245 249 254 257 259 259 260 262 263 264 265 264 265 265 265 268 270 274 279 273 264 262 257 254 261 261 249 242 238 237 243 252 263 267 254 251 260 268 279 287 294 303 306 309 313 313 311 310 309
218 214 209 202 197 204 208 209 209 210 219 234 246 257 261 263 264 264 266 265 264 265 264 265 266 265 267 268 268 272 273 276 282 275 267 265 259 254 262 260 246 240 237 237 245 256 262 257 246 251 262 274 287 290 295 304 304 306 309 309 308 310 310
218 210 203 195 194 202 207 211 216 219 228 240 250 258 263 267 269 269 269 266 264 264 263 264 264 262 264 267 269 275 277 280 285 279 273 271 260 251 260 262 249 240 237 239 247 254 253 249 246 252 265 278 288 293 299 304 303 304 306 306 306 308 309
213 204 199 194 195 201 208 214 218 221 230 239 247 256 263 269 272 272 272 270 269 270 269 269 269 267 268 270 270 275 278 281 284 281 277 275 262 249 252 255 248 242 239 240 246 251 250 247 243 252 269 279 287 293 298 302 303 303 304 304 305 305 306
207 201 198 195 196 202 209 213 216 221 230 240 249 260 267 271 273 274 276 276 276 276 276 276 276 274 275 275 273 275 276 277 281 282 282 278 265 253 250 248 246 247 247 244 242 243 243 241 244 257 272 281 286 290 294 300 302 302 302 302 302 301 302
205 201 200 200 203 208 211 213 217 224 235 246 255 262 265 267 271 275 278 278 278 279 279 280 280 278 278 278 276 275 275 274 279 287 286 275 265 260 253 244 241 246 248 240 231 233 236 241 254 270 279 281 285 289 295 300 300 299 299 299 298 299 301
205 206 208 209 208 210 213 215 221 230 242 251 257 261 264 267 273 277 279 280 283 286 287 284 279 275 275 277 276 277 279 279 285 291 286 271 266 260 239 218 212 217 222 220 221 228 237 250 265 274 278 280 285 290 295 297 297 298 298 297 296 298 300
203 209 213 211 210 212 216 222 230 240 248 254 257 260 264 270 276 279 282 284 288 293 294 287 281 277 276 276 277 279 283 286 290 290 278 262 253 231 203 190 188 194 203 209 219 231 243 256 263 268 274 281 287 290 290 291 293 293 292 291 293 295 297
207 213 213 210 211 216 222 229 238 245 250 253 257 262 269 276 282 287 290 290 290 294 296 293 290 288 283 279 278 278 278 281 284 274 245 228 216 200 192 183 177 185 201 213 223 235 244 252 260 267 277 284 286 285 285 287 289 289 289 289 288 289 292
208 211 209 207 211 218 226 233 239 245 251 256 262 270 275 280 288 295 297 294 292 294 298 301 301 295 285 281 280 277 271 271 267 234 203 201 197 190 187 180 177 190 209 220 228 236 243 252 264 274 280 282 282 282 284 287 290 291 293 293 290 287 289
201 202 202 205 210 215 222 230 240 248 254 260 265 271 276 283 292 297 298 296 295 298 303 306 303 295 287 284 281 274 262 245 216 192 190 194 191 186 185 182 185 199 213 223 231 239 247 258 267 274 277 279 280 282 285 288 290 290 291 293 291 288 289
199 201 204 208 214 220 230 241 250 253 256 261 268 275 283 291 297 300 299 299 300 303 306 307 302 295 290 285 278 264 235 205 190 189 193 193 189 187 188 188 194 204 216 226 234 243 254 263 268 273 277 279 281 282 284 287 288 287 289 290 290 289 291
200 204 209 215 222 231 241 248 249 250 259 273 282 290 295 297 299 300 299 300 302 305 307 306 301 296 290 282 268 238 207 194 193 198 198 191 186 187 190 192 197 207 218 230 241 253 264 269 273 277 280 280 282 283 285 285 285 285 287 289 289 290 291
197 201 206 211 216 221 228 235 244 260 278 290 296 298 298 298 299 299 299 301 304 306 306 305 301 296 288 275 251 217 201 197 200 202 197 190 186 188 191 195 201 209 221 237 250 260 268 273 276 279 281 282 283 283 284 283 284 286 288 289 289 289 290
196 198 198 203 210 221 236 250 266 280 290 296 298 298 297 296 298 298 300 303 305 306 305 303 299 291 281 266 238 212 204 204 208 205 198 193 191 191 196 203 208 213 226 242 253 263 270 274 276 278 279 281 281 282 283 284 285 287 289 289 289 289 289
198 199 201 209 225 247 268 281 288 292 295 297 297 295 295 295 297 298 300 303 304 304 304 301 293 283 273 255 228 213 210 211 212 208 201 197 196 197 205 217 222 222 231 245 257 266 271 272 274 277 279 281 282 283 285 286 286 288 288 289 289 288 288
213 217 229 246 266 278 285 291 293 294 294 294 293 292 293 294 296 298 300 301 301 302 302 298 287 276 264 240 220 216 218 214 209 205 203 203 203 206 216 226 229 229 238 251 259 264 268 271 275 279 283 285 287 289 289 288 287 287 287 287 287 287 289
257 263 265 268 275 279 280 282 285 287 288 288 289 291 293 295 297 298 299 299 299 299 298 291 273 262 250 228 219 223 222 209 202 202 206 208 212 222 230 231 231 238 247 254 257 262 267 273 279 284 287 289 291 292 290 287 286 286 287 287 288 289 291
264 266 266 266 270 271 270 273 277 279 282 285 288 293 295 297 298 298 296 296 295 293 290 276 252 246 241 228 226 230 217 202 201 207 211 215 228 243 242 232 233 241 246 250 256 264 272 279 284 288 290 291 291 291 289 288 289 289 289 290 291 292 292
260 262 261 262 265 266 267 270 275 278 283 287 292 296 297 297 296 294 291 290 287 283 275 258 238 238 238 233 232 225 209 202 207 210 214 228 246 245 231 225 232 240 245 252 261 269 276 282 286 289 291 292 292 294 295 294 293 292 291 292 292 292 293
262 265 264 262 263 266 270 275 280 286 290 293 296 297 296 293 290 286 282 278 274 268 260 245 234 237 237 232 226 216 206 204 208 213 226 247 252 236 225 231 239 244 251 259 265 270 276 281 285 289 293 296 297 299 299 297 295 293 291 291 291 292 292
259 262 263 263 267 273 279 284 289 293 295 297 297 296 291 285 280 274 269 266 262 257 249 238 236 239 235 225 217 211 207 208 217 231 245 253 246 233 232 240 245 249 256 261 266 272 276 281 287 293 297 300 301 301 300 297 294 292 291 291 291 291 291
Height
3155 3156 3157 3158 3159 3160 3162 3164 3166 3167 3169 3170 3172 3173 3175 3176 3177 3178 3179 3181 3182 3183 3183 3184 3185 3186 3187 3188 3189 3189 3190 3191 3191 3192 3192 3192 3192 3192 3192 3192 3192 3191 3191 3190 3190 3189 3188 3187 3185 3184 3183 3182 3181 3179 3178 3177 3177 3176 3174 3173 3172 3172 3171
3151 3153 3155 3156 3157 3158 3159 3161 3163 3165 3166 3168 3170 3171 3172 3174 3175 3176 3177 3179 3180 3181 3181 3182 3183 3184 3185 3186 3186 3187 3188 3189 3189 3190 3190 3190 3190 3190 3190 3190 3190 3190 3189 3189 3189 3188 3187 3186 3184 3183 3182 3181 3179 3178 3177 3176 3175 3174 3173 3172 3171 3170 3170
3148 3150 3152 3154 3154 3156 3157 3159 3160 3162 3164 3166 3167 3169 3170 3172 3173 3174 3175 3176 3178 3178 3179 3180 3181 3182 3183 3183 3184 3185 3186 3186 3187 3187 3188 3188 3188 3188 3188 3188 3188 3188 3188 3187 3187 3187 3186 3185 3184 3182 3181 3180 3178 3177 3175 3174 3173 3172 3171 3171 3170 3169 3168
3144 3146 3150 3152 3153 3154 3155 3156 3158 3159 3161 3163 3165 3167 3168 3170 3171 3172 3173 3174 3175 3176 3177 3178 3179 3180 3181 3181 3182 3183 3183 3184 3184 3185 3186 3186 3186 3186 3186 3186 3186 3186 3186 3186 3186 3185 3185 3184 3183 3182 3180 3179 3178 3176 3174 3173 3172 3171 3170 3170 3169 3168 3167
3141 3143 3147 3149 3150 3151 3152 3153 3155 3156 3158 3160 3163 3164 3166 3168 3169 3170 3171 3172 3173 3173 3174 3175 3176 3177 3178 3179 3179 3180 3181 3182 3182 3183 3183 3183 3183 3183 3184 3184 3184 3184 3184 3184 3184 3183 3183 3182 3182 3181 3179 3178 3176 3175 3173 3172 3171 3170 3169 3169 3168 3167 3166
3137 3139 3143 3145 3147 3148 3150 3151 3152 3154 3156 3158 3161 3162 3164 3165 3166 3167 3168 3169 3170 3171 3172 3173 3173 3174 3175 3176 3176 3177 3178 3178 3179 3179 3179 3180 3180 3181 3181 3182 3181 3182 3182 3182 3182 3181 3181 3180 3180 3179 3178 3176 3175 3173 3172 3171 3170 3169 3168 3167 3166 3165 3164
3135 3137 3140 3142 3144 3146 3147 3148 3150 3152 3154 3156 3158 3160 3161 3162 3163 3164 3165 3166 3167 3168 3169 3170 3170 3171 3172 3173 3173 3174 3175 3175 3175 3176 3176 3176 3177 3178 3179 3179 3179 3179 3180 3180 3179 3179 3178 3178 3178 3177 3176 3175 3174 3172 3171 3169 3168 3167 3167 3165 3164 3163 3162
3133 3135 3137 3140 3142 3144 3145 3146 3147 3150 3152 3154 3156 3157 3158 3160 3161 3161 3162 3164 3165 3165 3166 3167 3167 3168 3169 3169 3170 3171 3172 3172 3172 3173 3173 3174 3175 3176 3176 3176 3176 3177 3177 3177 3177 3176 3176 3175 3175 3175 3174 3173 3172 3170 3169 3168 3166 3165 3164 3163 3162 3161 3159
3131 3133 3135 3138 3140 3142 3143 3144 3145 3148 3150 3152 3153 3154 3156 3157 3158 3159 3160 3161 3162 3162 3163 3164 3165 3165 3165 3166 3167 3168 3169 3169 3169 3170 3170 3171 3172 3173 3173 3174 3174 3175 3175 3174 3174 3173 3172 3172 3172 3172 3171 3171 3169 3168 3167 3165 3164 3163 3162 3161 3159 3158 3157
3129 3131 3133 3136 3138 3139 3141 3142 3143 3145 3147 3148 3150 3151 3152 3153 3155 3156 3157 3158 3159 3159 3160 3161 3161 3161 3162 3163 3164 3165 3166 3165 3166 3166 3166 3166 3167 3168 3170 3172 3172 3172 3172 3171 3170 3169 3169 3169 3169 3169 3168 3168 3167 3166 3165 3163 3162 3161 3160 3158 3157 3156 3155
3127 3129 3131 3133 3135 3137 3138 3139 3140 3142 3143 3145 3147 3148 3150 3151 3152 3153 3155 3156 3156 3157 3158 3158 3158 3158 3159 3160 3161 3162 3162 3162 3162 3160 3160 3162 3163 3164 3166 3168 3169 3169 3168 3167 3166 3166 3166 3165 3165 3166 3166 3165 3164 3164 3163 3162 3160 3159 3158 3156 3155 3154 3153
3126 3127 3129 3131 3132 3134 3135 3137 3138 3140 3142 3143 3145 3146 3147 3149 3150 3151 3152 3153 3154 3154 3154 3155 3155 3156 3157 3158 3158 3159 3158 3158 3156 3154 3156 3160 3160 3161 3162 3163 3165 3165 3164 3164 3163 3162 3162 3162 3162 3163 3164 3163 3162 3162 3161 3160 3159 3157 3156 3155 3153 3152 3151
3124 3125 3127 3129 3131 3132 3133 3135 3136 3138 3140 3142 3143 3144 3146 3146 3147 3148 3149 3150 3151 3151 3151 3151 3152 3154 3155 3155 3156 3155 3153 3152 3152 3151 3153 3154 3155 3156 3157 3158 3160 3161 3160 3160 3159 3158 3158 3158 3159 3161 3162 3161 3160 3159 3159 3157 3157 3155 3154 3153 3151 3150 3148
3121 3123 3125 3127 3128 3130 3131 3133 3135 3137 3138 3140 3141 3143 3144 3144 3145 3146 3147 3147 3147 3147 3148 3149 3150 3151 3151 3152 3152 3151 3147 3146 3148 3147 3146 3146 3148 3151 3151 3152 3154 3155 3155 3155 3154 3154 3154 3155 3156 3157 3158 3157 3157 3157 3156 3155 3154 3153 3152 3151 3149 3147 3146
3119 3121 3123 3124 3126 3128 3129 3131 3133 3135 3137 3138 3140 3141 3142 3142 3143 3143 3144 3144 3145 3145 3146 3147 3147 3148 3148 3148 3148 3144 3141 3141 3142 3141 3141 3141 3143 3145 3146 3146 3148 3149 3150 3150 3150 3150 3151 3152 3153 3153 3153 3153 3154 3154 3153 3152 3151 3151 3150 3148 3147 3145 3144
3116 3118 3120 3121 3124 3126 3128 3130 3132 3134 3135 3136 3137 3138 3139 3140 3140 3141 3141 3142 3142 3143 3143 3144 3144 3144 3144 3143 3141 3139 3138 3139 3138 3136 3136 3136 3137 3140 3142 3142 3143 3144 3145 3146 3145 3146 3148 3150 3150 3149 3149 3150 3151 3151 3150 3149 3148 3148 3147 3145 3144 3142 3141
3113 3115 3117 3119 3121 3123 3126 3128 3130 3131 3132 3134 3135 3136 3137 3138 3138 3138 3139 3139 3139 3140 3140 3140 3140 3140 3139 3138 3137 3137 3136 3137 3135 3132 3131 3132 3133 3135 3137 3138 3139 3140 3140 3141 3141 3143 3146 3148 3147 3147 3148 3148 3148 3148 3147 3146 3145 3144 3143 3142 3140 3139 3138
3110 3112 3115 3117 3119 3121 3124 3126 3127 3129 3131 3132 3133 3134 3134 3135 3135 3135 3135 3136 3136 3136 3135 3135 3135 3135 3135 3133 3133 3134 3134 3134 3132 3127 3126 3129 3129 3130 3134 3136 3137 3137 3137 3138 3139 3142 3145 3145 3145 3145 3146 3146 3146 3146 3145 3143 3142 3141 3140 3138 3136 3135 3134
3109 3111 3114 3116 3118 3120 3122 3124 3126 3128 3129 3130 3130 3131 3131 3131 3131 3132 3132 3132 3132 3131 3130 3131 3131 3131 3130 3129 3129 3130 3130 3131 3128 3122 3122 3127 3128 3129 3133 3134 3134 3134 3135 3136 3138 3140 3142 3142 3142 3143 3143 3143 3143 3143 3142 3141 3140 3138 3136 3135 3133 3132 3130
3108 3111 3113 3114 3116 3118 3120 3122 3124 3125 3126 3127 3127 3127 3128 3128 3128 3128 3128 3127 3127 3127 3126 3127 3127 3127 3126 3125 3125 3126 3126 3126 3122 3118 3119 3124 3125 3127 3130 3131 3131 3132 3132 3133 3135 3137 3138 3139 3139 3140 3140 3140 3140 3140 3140 3139 3137 3136 3134 3132 3130 3129 3127
3107 3109 3110 3112 3114 3116 3118 3119 3121 3122 3122 3123 3124 3124 3124 3124 3124 3124 3124 3123 3123 3123 3123 3123 3123 3123 3123 3122 3121 3121 3121 3120 3117 3115 3117 3121 3122 3123 3125 3126 3128 3128 3129 3132 3133 3134 3135 3136 3136 3137 3137 3137 3137 3137 3137 3136 3135 3133 3131 3130 3128 3126 3125
3105 3107 3109 3111 3113 3114 3115 3116 3117 3118 3119 3120 3121 3121 3121 3121 3121 3121 3120 3120 3120 3120 3119 3119 3119 3119 3118 3117 3117 3116 3116 3114 3112 3113 3116 3117 3117 3118 3119 3121 3124 3126 3128 3130 3131 3132 3133 3134 3134 3134 3134 3134 3134 3133 3134 3133 3132 3130 3129 3127 3125 3124 3122
3104 3106 3108 3109 3110 3111 3112 3113 3114 3115 3116 3117 3117 3118 3118 3118 3118 3117 3117 3117 3117 3117 3116 3116 3115 3114 3114 3113 3112 3112 3111 3110 3109 3110 3112 3112 3112 3114 3115 3117 3120 3122 3124 3127 3128 3130 3131 3132 3132 3132 3132 3131 3130 3130 3130 3130 3129 3128 3126 3124 3122 3121 3120
3101 3103 3105 3106 3107 3108 3109 3111 3112 3112 3113 3114 3114 3115 3115 3115 3115 3115 3115 3115 3114 3114 3113 3112 3111 3110 3110 3109 3108 3107 3107 3106 3106 3106 3107 3107 3109 3111 3111 3113 3115 3118 3121 3124 3126 3128 3129 3129 3130 3130 3129 3128 3128 3127 3127 3127 3126 3125 3123 3121 3120 3118 3116
3098 3100 3102 3103 3105 3106 3107 3108 3109 3110 3110 3111 3111 3112 3112 3112 3112 3112 3112 3112 3111 3110 3109 3108 3107 3107 3106 3105 3104 3103 3102 3102 3102 3102 3103 3103 3105 3107 3108 3110 3112 3116 3119 3122 3123 3125 3126 3126 3127 3127 3126 3126 3125 3124 3124 3123 3122 3121 3119 3118 3116 3115 3113
3095 3097 3099 3101 3103 3104 3105 3106 3106 3107 3107 3108 3108 3108 3109 3109 3109 3109 3109 3108 3108 3107 3106 3105 3104 3103 3101 3100 3099 3098 3098 3098 3098 3099 3100 3101 3102 3104 3106 3108 3110 3114 3117 3119 3120 3121 3122 3123 3124 3124 3123 3122 3122 3121 3120 3119 3118 3117 3115 3114 3112 3111 3109
3093 3095 3097 3098 3099 3100 3101 3102 3104 3105 3105 3105 3105 3105 3106 3106 3106 3106 3105 3105 3104 3103 3103 3101 3100 3099 3097 3095 3094 3094 3094 3094 3095 3096 3098 3098 3100 3103 3105 3106 3108 3112 3115 3117 3118 3119 3120 3120 3121 3120 3120 3119 3118 3118 3116 3115 3114 3113 3112 3110 3108 3107 3105
3090 3092 3093 3094 3095 3096 3097 3099 3102 3103 3103 3103 3103 3103 3103 3103 3102 3102 3101 3101 3101 3100 3099 3098 3096 3094 3092 3091 3090 3090 3090 3091 3093 3093 3094 3096 3098 3101 3103 3104 3106 3109 3112 3114 3116 3117 3117 3118 3117 3117 3116 3115 3114 3114 3112 3111 3110 3109 3108 3106 3104 3102 3100
3088 3090 3091 3092 3093 3094 3095 3097 3099 3101 3101 3100 3100 3099 3099 3098 3098 3098 3098 3097 3097 3096 3095 3094 3092 3090 3088 3087 3087 3087 3088 3089 3090 3091 3092 3094 3097 3099 3101 3102 3104 3107 3109 3112 3113 3114 3114 3114 3113 3112 3112 3111 3110 3109 3108 3108 3106 3105 3103 3102 3100 3098 3096
3086 3088 3089 3091 3092 3093 3094 3096 3097 3098 3097 3097 3096 3095 3095 3094 3094 3094 3094 3094 3093 3092 3091 3090 3089 3087 3085 3083 3083 3084 3085 3086 3088 3090 3091 3092 3094 3096 3098 3099 3101 3104 3106 3108 3109 3110 3110 3110 3109 3109 3108 3107 3107 3105 3104 3103 3102 3101 3099 3098 3096 3094 3092
3083 3085 3086 3088 3090 3091 3093 3094 3094 3094 3093 3093 3092 3092 3091 3091 3091 3090 3090 3090 3089 3088 3087 3086 3085 3083 3081 3080 3081 3081 3082 3084 3086 3088 3089 3091 3092 3093 3095 3097 3099 3101 3103 3105 3106 3106 3106 3106 3105 3105 3104 3104 3103 3101 3100 3098 3097 3096 3095 3093 3091 3090 3088
3081 3082 3083 3085 3086 3088 3090 3091 3091 3090 3090 3089 3089 3088 3088 3087 3087 3086 3086 3086 3085 3084 3083 3082 3081 3080 3078 3078 3079 3080 3081 3082 3084 3086 3088 3089 3091 3092 3093 3095 3097 3098 3100 3102 3103 3103 3103 3102 3102 3101 3101 3100 3098 3097 3095 3094 3093 3092 3091 3089 3087 3086 3084
3080 3081 3082 3082 3083 3084 3086 3087 3087 3087 3086 3085 3085 3085 3085 3084 3083 3082 3082 3082 3081 3080 3079 3078 3077 3076 3076 3076 3077 3078 3079 3080 3082 3084 3086 3088 3089 3090 3091 3092 3093 3095 3097 3099 3099 3099 3099 3099 3098 3098 3097 3096 3094 3093 3091 3091 3090 3088 3087 3085 3083 3082 3080
3079 3080 3080 3080 3080 3080 3082 3083 3084 3083 3082 3082 3082 3082 3081 3080 3079 3079 3078 3078 3077 3076 3076 3075 3075 3074 3074 3074 3075 3076 3077 3078 3080 3082 3083 3085 3086 3087 3088 3089 3090 3092 3094 3095 3096 3096 3096 3095 3094 3094 3092 3091 3090 3089 3088 3087 3085 3084 3083 3081 3079 3078 3076
3076 3077 3077 3077 3077 3077 3079 3080 3079 3079 3078 3078 3078 3078 3077 3076 3075 3075 3074 3074 3073 3073 3073 3072 3072 3072 3072 3073 3074 3074 3075 3076 3078 3079 3081 3082 3084 3085 3086 3087 3088 3090 3091 3092 3092 3092 3092 3091 3090 3089 3088 3087 3086 3085 3083 3082 3081 3079 3078 3076 3075 3073 3072
3072 3073 3073 3073 3074 3074 3075 3075 3075 3075 3075 3074 3074 3074 3073 3072 3072 3071 3071 3070 3070 3070 3070 3069 3069 3070 3070 3071 3072 3072 3072 3073 3075 3077 3079 3081 3082 3083 3083 3085 3086 3087 3088 3088 3088 3088 3087 3087 3086 3085 3084 3083 3082 3080 3078 3077 3076 3074 3073 3072 3071 3070 3068
3069 3069 3070 3070 3071 3071 3071 3071 3071 3071 3070 3070 3070 3070 3069 3069 3069 3068 3067 3067 3067 3066 3066 3066 3067 3067 3068 3069 3070 3070 3071 3073 3075 3076 3078 3079 3080 3080 3081 3082 3083 3084 3085 3085 3084 3084 3083 3083 3082 3081 3080 3079 3077 3075 3074 3072 3071 3070 3069 3068 3067 3066 3065
3066 3067 3067 3067 3067 3067 3067 3067 3067 3067 3066 3066 3066 3066 3066 3065 3065 3065 3064 3064 3064 3064 3064 3064 3064 3065 3066 3067 3068 3068 3070 3071 3072 3073 3075 3076 3077 3078 3079 3080 3080 3081 3081 3081 3081 3080 3080 3079 3078 3077 3075 3074 3073 3071 3070 3069 3068 3067 3065 3064 3064 3063 3062